Volver al catálogo

STARLINK-37435

ActivoComunicacionesVLEO
NORAD 69265·PAYLOAD·🇺🇸 United States

Lanzado May 29, 2026 desde Cape Canaveral Space Force Station

Loading…

Próximos Pases (próximas 24 horas)

TLE

ActualizadoSource: CelesTrak SupGP

Época: Sep 15, 2026, 09:40 UTC

1 69265C 26117AD  26258.40326389 -.00007932  00000+0 -23434-3 0  2582
2 69265  53.1562 177.6488 0001339  81.7647 262.2501 15.34396323    10

Sigue STARLINK-37435 en tiempo real con AllMySat

Download on the App Store